Wind_Speed
8 8 7 6 6 6 2 2 5 6 7 8 8 8 9 9 9 10 8 7 6 6 6 5 5 5 5 5 5 6 6 6 6 6 6 6 5 5 5 5 5 4 3 3 3 3 3 3 3
8 7 7 7 7 10 10 6 7 9 9 8 9 10 11 9 9 9 8 8 7 7 6 6 6 6 6 6 7 7 7 7 7 7 7 7 7 6 6 6 6 6 5 5 4 4 4 4 4
9 9 9 8 7 9 12 13 11 11 11 10 11 12 12 11 10 9 8 7 7 7 7 7 7 7 7 7 8 8 8 9 9 8 8 8 8 8 8 7 7 7 7 7 6 6 6 6 6
11 11 10 9 8 10 14 16 14 14 13 13 14 15 13 11 11 10 9 8 7 7 8 8 7 7 7 8 9 9 10 10 10 10 9 9 10 10 9 9 9 9 9 9 8 8 8 8 8
13 12 11 11 11 15 16 17 16 15 15 14 16 18 14 12 11 11 10 9 8 7 8 8 7 7 8 9 10 10 11 11 12 11 11 11 11 12 12 11 11 11 11 11 10 10 9 9 9
15 14 12 11 14 16 18 19 19 18 17 16 19 20 17 14 12 11 11 10 9 9 9 9 8 9 9 10 11 12 12 13 13 13 13 13 13 14 14 13 13 13 13 13 12 11 10 10 10
16 15 13 12 14 17 19 24 23 21 20 19 19 20 18 13 11 12 12 11 11 11 10 11 11 11 11 12 13 14 14 15 15 15 15 15 15 15 15 15 15 15 15 15 14 13 12 12 12
15 14 12 12 13 16 21 25 24 22 23 21 22 24 21 15 12 12 13 13 12 12 12 12 13 13 13 14 15 16 16 16 16 17 17 18 18 17 17 17 16 16 16 16 15 15 14 14 14
12 12 10 12 14 17 20 23 23 24 24 23 23 25 22 17 14 15 16 15 13 13 13 13 14 15 15 15 16 17 17 18 19 19 20 20 20 20 20 20 19 18 18 17 17 16 15 14 15
11 10 11 17 19 20 20 22 22 21 24 25 24 23 23 20 17 17 17 16 15 14 14 14 14 16 17 17 18 19 20 20 21 21 21 21 22 23 23 22 22 21 20 20 19 18 17 17 17
11 12 15 18 18 20 20 20 23 23 25 24 23 23 23 21 19 18 18 17 16 15 15 14 15 17 18 19 19 20 20 22 22 22 23 23 23 23 24 24 24 23 22 22 21 21 20 19 18
12 13 14 15 17 18 19 21 21 22 25 26 23 21 19 20 18 17 17 16 16 15 14 15 16 17 18 19 21 21 21 22 21 21 21 22 22 22 23 22 20 20 21 21 21 21 21 21 20
11 12 12 13 15 16 16 19 19 19 21 22 23 22 21 21 21 20 18 17 16 16 16 16 17 18 18 20 21 21 20 21 23 23 22 22 23 23 24 22 20 18 19 20 20 21 20 20 19
8 9 10 11 13 16 17 17 16 18 19 20 22 23 21 20 20 18 15 15 16 16 16 17 17 17 19 19 19 18 18 20 20 20 20 21 21 22 23 22 21 20 20 20 20 21 20 19 19
8 10 11 12 14 16 19 19 17 17 17 18 20 21 22 21 17 15 14 15 17 17 16 16 16 17 18 17 16 17 18 19 19 19 20 20 19 19 19 20 21 20 20 20 21 21 21 21 21
9 12 12 12 15 18 20 19 16 13 14 15 17 18 19 20 16 13 13 15 16 16 16 15 15 15 15 15 15 15 16 16 16 17 18 18 17 16 17 18 20 20 20 20 21 21 22 23 23
14 15 14 14 15 17 19 18 14 13 13 14 15 15 17 17 15 14 13 14 15 14 14 14 13 13 14 14 14 14 15 16 16 15 15 16 16 17 18 19 20 22 22 22 23 23 24 24 25
11 12 13 14 16 17 16 14 13 13 13 12 11 11 13 13 13 12 13 13 13 13 12 12 13 14 14 14 14 14 14 14 15 16 16 16 17 19 20 21 22 23 23 24 24 25 25 26 27
10 10 12 13 16 16 15 14 12 11 11 9 8 9 8 10 11 12 12 12 12 11 12 13 14 15 14 13 13 14 13 14 16 16 17 18 19 21 21 22 22 23 24 24 25 26 27 28 28
11 13 12 13 14 14 12 11 8 8 9 7 7 7 6 7 8 8 8 9 10 10 11 12 13 12 13 14 14 14 15 16 17 18 19 20 21 22 22 23 24 25 25 26 27 28 28 29 29
11 13 13 13 12 13 11 9 9 6 7 6 5 5 4 4 5 5 4 5 7 8 9 9 10 11 12 13 14 15 17 18 19 19 20 21 22 22 23 24 25 26 26 26 27 28 29 30 30
13 12 11 9 10 13 11 12 11 8 7 6 5 5 4 3 3 3 4 6 7 7 8 9 10 12 13 14 15 17 18 19 20 21 21 22 22 23 23 24 25 26 26 27 27 28 29 29 30
13 10 8 6 11 13 8 11 11 9 9 7 6 5 4 3 2 3 4 5 6 7 8 10 12 13 14 15 17 18 20 20 21 21 21 22 23 23 24 24 25 26 27 27 28 28 29 29 29
11 9 10 10 12 11 6 9 11 11 9 7 6 5 4 3 3 4 4 6 7 8 9 11 13 14 16 17 18 19 20 21 21 22 22 23 24 24 24 25 26 27 27 28 28 29 29 29 29
12 10 13 14 13 9 7 6 10 10 10 8 5 4 3 4 4 4 5 7 8 10 11 13 14 15 17 18 19 20 20 21 21 22 23 24 25 26 26 26 27 28 29 29 30 30 30 30 30
12 9 11 12 11 10 6 8 9 9 8 7 5 4 5 5 5 6 7 9 10 11 13 14 15 17 18 19 19 20 21 21 22 22 23 24 25 27 28 29 29 30 30 31 31 31 31 31 31
10 7 7 8 9 8 7 10 5 7 9 8 7 6 7 7 7 8 9 10 11 12 14 15 16 17 19 19 19 20 21 22 23 24 25 26 27 29 29 30 31 31 32 32 32 33 33 33 33
9 7 6 6 8 9 7 10 11 8 10 10 9 9 8 9 9 10 11 12 13 13 15 16 17 18 19 19 20 20 20 21 23 25 27 28 29 31 31 32 32 33 33 33 34 34 35 35 35
9 8 8 8 8 9 10 9 10 12 13 13 11 10 10 10 10 11 11 12 13 14 15 16 18 18 19 19 20 21 21 23 25 27 28 29 31 32 33 34 34 34 35 35 36 36 36 36 36
10 10 10 9 9 8 9 12 12 14 15 14 13 12 11 12 12 12 12 13 14 15 16 17 18 19 19 19 20 21 23 25 27 28 30 31 32 34 35 35 35 36 36 36 37 37 37 37 37
Wind_Direction
0 359 354 345 331 322 1 359 322 319 304 307 305 298 289 291 288 296 309 298 294 290 295 291 284 279 281 287 291 295 299 299 299 301 301 301 303 303 305 308 309 310 311 317 328 340 346 346 346
338 332 322 314 313 324 329 325 308 308 298 297 294 288 292 295 299 296 298 293 287 283 286 288 287 286 285 287 288 294 297 296 296 298 298 297 295 296 299 303 303 302 300 301 303 305 311 314 313
313 307 302 299 299 306 307 305 305 298 291 283 284 283 289 297 296 296 294 293 288 283 281 287 291 292 293 291 291 291 294 296 294 292 292 294 292 292 292 294 297 297 296 296 296 295 293 295 296
298 295 290 291 294 285 283 278 284 285 282 283 282 276 281 287 291 295 290 287 287 284 281 287 292 294 295 294 293 293 291 292 293 291 290 291 292 292 291 290 290 290 292 292 293 292 290 289 288
290 287 286 293 291 284 278 276 282 279 271 270 270 276 282 284 285 290 288 286 288 286 282 285 292 295 297 296 297 297 294 292 292 291 287 288 289 290 291 290 287 285 287 289 290 289 286 285 284
283 280 279 284 283 281 283 281 278 274 269 266 266 272 274 272 275 281 284 286 290 290 288 289 293 294 297 298 300 299 296 294 292 290 287 287 286 287 288 288 285 284 283 284 285 284 282 281 281
279 277 271 272 275 281 285 281 279 273 266 265 260 264 271 268 268 277 282 285 289 291 288 293 294 293 294 295 296 295 294 293 290 287 285 285 284 284 284 283 282 281 279 280 281 281 281 278 277
277 274 272 274 272 275 275 278 278 272 264 262 261 265 269 270 279 279 278 279 286 290 291 293 294 291 289 290 291 291 290 290 288 286 282 280 280 279 278 278 278 277 276 276 276 277 276 275 273
276 270 275 265 258 259 265 273 276 275 269 264 259 262 266 273 271 275 275 275 279 285 289 294 296 294 290 289 288 286 286 285 285 285 282 279 276 274 274 273 272 272 273 274 274 275 273 272 271
274 271 266 257 257 260 264 270 271 273 268 262 255 259 262 269 267 273 278 280 281 284 287 293 293 293 292 288 287 285 283 282 281 279 279 277 275 273 271 271 270 269 269 270 271 271 270 269 268
283 268 262 267 267 268 268 270 270 269 268 265 257 257 260 265 264 271 273 280 281 283 287 294 292 291 291 286 285 285 284 286 284 281 277 277 279 278 273 272 272 269 266 267 269 268 267 267 265
301 295 287 283 284 285 275 272 271 266 262 263 258 256 252 254 256 262 269 278 285 285 288 294 296 294 291 285 285 284 286 287 287 284 282 282 283 280 277 276 279 274 270 269 272 271 269 267 267
306 302 300 299 301 299 292 281 275 270 262 266 266 260 254 253 256 258 262 273 283 283 285 292 297 296 294 290 289 288 289 289 288 285 286 285 283 281 278 276 278 278 279 279 277 272 271 271 272
310 300 295 300 308 306 299 290 274 271 271 268 267 262 253 252 256 259 261 272 283 283 283 288 294 294 293 291 292 291 291 290 288 289 291 289 287 282 277 275 277 279 281 279 278 276 274 276 277
315 308 307 301 304 305 303 298 286 276 272 268 268 264 261 261 262 256 264 274 281 282 288 290 292 294 294 294 295 293 293 291 291 293 292 290 290 286 279 279 278 277 280 279 278 276 276 277 276
344 332 320 316 311 310 307 303 298 296 287 277 267 261 261 265 269 264 270 278 279 279 285 291 294 298 300 300 302 297 298 298 299 298 295 291 292 288 284 281 280 280 281 281 280 279 277 275 274
355 339 328 316 313 312 309 304 311 307 296 279 269 263 263 266 275 276 277 279 281 281 287 289 294 298 300 305 305 303 301 300 301 298 296 295 294 293 291 288 285 283 283 283 282 281 279 277 275
328 319 313 307 311 317 317 317 318 317 309 293 279 269 266 269 274 278 283 287 287 289 292 295 300 299 303 306 306 304 304 302 303 300 300 301 299 297 294 291 289 286 284 284 283 282 280 278 276
307 297 296 305 310 315 320 319 322 320 316 305 291 282 276 270 271 279 282 287 288 292 294 295 299 302 305 307 309 308 309 308 308 306 304 303 301 298 297 295 291 288 287 287 285 283 281 278 276
304 301 303 311 313 315 316 317 320 322 320 313 304 301 300 283 282 295 296 294 292 296 297 298 299 306 308 308 311 311 312 313 313 314 312 307 304 302 300 297 294 292 291 290 288 286 283 281 278
300 301 301 305 310 312 317 328 334 337 333 324 322 321 317 308 308 305 304 308 310 311 310 312 310 313 314 316 317 317 318 317 316 315 314 312 310 306 304 301 297 294 292 290 288 286 284 282 280
304 301 307 311 302 300 310 319 339 349 344 350 350 345 330 330 327 327 321 316 313 314 317 318 319 321 322 323 322 320 320 318 317 316 316 314 312 309 307 304 301 298 295 293 290 288 285 283 281
306 306 305 292 285 288 315 329 332 338 340 345 359 352 337 329 335 338 332 327 323 324 328 327 326 324 324 325 324 322 321 320 319 318 318 316 314 312 310 307 304 301 299 296 293 290 287 285 282
306 300 304 298 292 296 342 337 328 346 354 355 353 349 343 338 332 329 329 325 325 326 327 327 327 326 327 326 325 324 323 323 322 321 320 318 316 314 312 310 307 304 301 299 297 294 291 289 286
304 303 310 321 330 357 359 322 327 343 357 1 351 356 355 351 341 340 335 330 327 326 326 328 328 328 329 328 327 326 326 325 323 321 320 319 318 317 315 313 310 307 304 301 299 296 293 291 288
299 300 307 321 334 330 329 321 336 339 351 352 342 339 339 341 334 330 327 327 329 330 330 332 332 332 331 330 329 329 327 326 325 324 323 321 319 318 316 313 311 309 306 303 301 298 294 292 289
288 277 282 298 308 295 296 317 322 329 335 338 334 331 331 328 327 325 327 329 331 333 334 334 333 332 331 331 330 330 330 329 328 326 325 323 321 320 317 314 311 309 306 303 301 298 295 292 289
288 279 271 279 303 310 286 288 305 335 331 328 325 324 324 325 327 328 328 329 331 333 332 332 331 331 331 331 330 329 329 329 328 327 326 324 322 320 318 316 313 310 307 304 301 298 295 292 289
279 277 259 245 248 289 303 303 306 329 326 323 317 317 319 322 325 327 327 327 328 330 330 330 330 331 331 330 328 328 328 328 327 327 325 323 322 321 319 317 314 311 308 305 302 299 296 292 289
243 247 253 253 247 250 293 298 302 317 317 317 316 316 318 320 320 321 322 324 325 326 327 328 329 329 329 329 328 327 327 326 326 326 325 325 323 322 321 318 316 313 311 307 304 301 298 294 290
Height
5920 5920 5919 5919 5918 5915 5910 5910 5914 5913 5913 5913 5911 5910 5908 5908 5908 5908 5906 5905 5906 5906 5906 5906 5906 5906 5907 5907 5907 5907 5907 5907 5907 5907 5906 5906 5906 5906 5905 5905 5905 5904 5904 5904 5904 5903 5903 5903 5903
5920 5919 5919 5918 5917 5913 5908 5908 5912 5913 5912 5911 5910 5908 5907 5906 5906 5905 5904 5905 5905 5905 5905 5905 5905 5905 5906 5906 5906 5906 5906 5906 5906 5906 5906 5905 5905 5905 5905 5905 5905 5904 5904 5904 5904 5904 5903 5903 5903
5918 5918 5918 5917 5916 5914 5912 5911 5912 5912 5911 5910 5909 5908 5906 5905 5905 5904 5904 5904 5904 5904 5904 5904 5904 5904 5904 5904 5905 5905 5905 5905 5905 5905 5905 5905 5904 5904 5904 5904 5904 5904 5904 5903 5903 5903 5903 5903 5903
5916 5916 5916 5916 5914 5914 5913 5912 5910 5911 5909 5909 5907 5905 5902 5904 5904 5903 5903 5903 5903 5903 5902 5902 5903 5903 5903 5903 5903 5904 5904 5904 5904 5904 5903 5903 5903 5903 5903 5903 5903 5903 5902 5902 5902 5902 5902 5902 5902
5913 5914 5914 5913 5913 5912 5908 5908 5908 5908 5907 5906 5903 5901 5899 5902 5902 5901 5901 5901 5901 5901 5901 5901 5901 5901 5902 5902 5902 5902 5902 5902 5902 5902 5902 5902 5902 5902 5902 5902 5901 5901 5901 5901 5901 5901 5901 5901 5901
5911 5911 5911 5911 5912 5910 5907 5904 5905 5905 5903 5901 5899 5898 5897 5897 5899 5898 5899 5899 5899 5899 5900 5899 5899 5899 5900 5900 5900 5900 5900 5900 5900 5900 5900 5900 5900 5900 5900 5900 5900 5899 5899 5899 5899 5899 5899 5899 5899
5908 5907 5908 5909 5911 5909 5906 5902 5902 5901 5900 5899 5896 5893 5892 5889 5893 5896 5896 5897 5897 5897 5898 5898 5898 5898 5898 5898 5898 5898 5898 5898 5898 5898 5898 5898 5898 5898 5897 5897 5897 5897 5897 5897 5897 5897 5897 5897 5897
5904 5905 5905 5907 5908 5908 5903 5899 5898 5898 5897 5896 5893 5891 5889 5886 5890 5893 5894 5894 5895 5895 5895 5896 5896 5896 5896 5896 5896 5896 5895 5895 5895 5895 5895 5895 5895 5895 5895 5895 5895 5895 5895 5895 5894 5894 5894 5894 5895
5901 5902 5902 5904 5904 5903 5899 5895 5894 5893 5892 5890 5888 5888 5888 5886 5889 5891 5891 5891 5892 5892 5893 5893 5893 5893 5893 5893 5892 5892 5892 5892 5892 5892 5891 5891 5891 5891 5891 5891 5891 5892 5892 5892 5892 5892 5892 5892 5892
5898 5898 5900 5898 5897 5896 5894 5891 5890 5888 5886 5884 5881 5883 5884 5886 5887 5888 5889 5889 5889 5889 5889 5890 5890 5890 5890 5889 5889 5889 5889 5889 5888 5888 5887 5887 5887 5887 5887 5887 5888 5888 5888 5888 5888 5888 5888 5888 5889
5894 5895 5894 5893 5892 5890 5889 5887 5886 5884 5881 5876 5876 5879 5879 5882 5884 5885 5886 5886 5886 5886 5887 5887 5887 5886 5886 5885 5885 5885 5885 5884 5883 5883 5882 5882 5882 5882 5883 5883 5883 5883 5883 5884 5884 5884 5884 5885 5885
5892 5891 5890 5889 5887 5886 5884 5882 5880 5878 5876 5873 5872 5874 5875 5877 5878 5880 5882 5883 5883 5883 5883 5882 5883 5883 5882 5880 5881 5881 5880 5880 5879 5879 5878 5878 5878 5878 5879 5879 5878 5878 5878 5879 5880 5880 5880 5881 5881
5890 5889 5887 5885 5883 5882 5879 5877 5875 5874 5869 5869 5869 5870 5870 5873 5874 5877 5878 5879 5879 5880 5880 5879 5880 5879 5878 5877 5877 5876 5876 5876 5875 5875 5874 5874 5874 5873 5874 5874 5874 5874 5875 5875 5875 5876 5876 5876 5877
5888 5886 5884 5882 5881 5879 5875 5873 5871 5869 5868 5867 5867 5868 5867 5867 5868 5870 5873 5874 5876 5876 5876 5877 5877 5876 5874 5873 5873 5872 5871 5871 5871 5871 5870 5870 5869 5869 5869 5870 5871 5871 5871 5871 5871 5871 5871 5872 5873
5885 5883 5881 5880 5878 5875 5873 5869 5865 5864 5863 5864 5864 5865 5865 5865 5862 5865 5869 5871 5872 5873 5873 5873 5873 5872 5871 5870 5870 5869 5869 5869 5868 5867 5867 5866 5865 5865 5865 5866 5866 5866 5866 5866 5866 5866 5866 5867 5867
5883 5881 5879 5878 5877 5874 5871 5866 5861 5860 5859 5860 5861 5862 5864 5863 5861 5861 5864 5867 5869 5870 5871 5870 5870 5870 5869 5868 5867 5866 5866 5865 5865 5864 5863 5862 5861 5861 5861 5862 5862 5862 5862 5862 5862 5861 5862 5862 5862
5882 5881 5880 5878 5875 5873 5869 5863 5860 5857 5857 5856 5856 5858 5860 5860 5859 5860 5862 5864 5866 5867 5867 5867 5867 5867 5866 5865 5864 5864 5863 5863 5862 5861 5860 5859 5859 5858 5858 5858 5858 5857 5857 5857 5856 5856 5856 5856 5856
5884 5883 5881 5879 5875 5873 5868 5862 5860 5857 5857 5855 5855 5856 5857 5857 5858 5859 5860 5862 5863 5864 5864 5865 5865 5865 5863 5863 5862 5861 5861 5860 5859 5858 5857 5856 5855 5854 5853 5853 5853 5852 5852 5851 5851 5850 5850 5850 5850
5884 5883 5880 5877 5874 5871 5867 5863 5861 5859 5857 5856 5856 5856 5856 5856 5857 5858 5859 5860 5862 5862 5862 5863 5863 5862 5861 5861 5860 5859 5859 5858 5856 5855 5854 5853 5851 5850 5849 5848 5848 5847 5846 5846 5845 5844 5843 5843 5844
5883 5881 5878 5876 5874 5870 5866 5862 5859 5859 5858 5857 5856 5856 5856 5855 5856 5856 5858 5859 5860 5860 5860 5861 5861 5860 5860 5859 5858 5857 5856 5855 5853 5852 5850 5849 5847 5846 5844 5843 5842 5841 5840 5839 5838 5837 5837 5836 5836
5881 5879 5877 5875 5873 5869 5865 5862 5860 5859 5858 5856 5855 5856 5856 5856 5856 5857 5858 5859 5859 5859 5859 5859 5859 5859 5858 5857 5856 5854 5853 5851 5850 5849 5847 5845 5843 5841 5840 5839 5837 5835 5834 5833 5832 5831 5830 5829 5829
5879 5877 5875 5873 5871 5867 5865 5863 5860 5858 5859 5856 5856 5856 5856 5856 5857 5857 5858 5858 5858 5859 5859 5858 5858 5857 5856 5855 5853 5852 5850 5849 5847 5845 5843 5841 5839 5837 5835 5833 5832 5830 5828 5827 5825 5824 5823 5822 5821
5877 5875 5872 5871 5868 5864 5863 5862 5861 5858 5858 5856 5856 5856 5856 5856 5857 5857 5858 5858 5858 5858 5858 5857 5856 5856 5854 5853 5851 5849 5847 5845 5843 5841 5839 5837 5835 5832 5831 5829 5826 5824 5822 5820 5818 5817 5815 5814 5813
5875 5873 5871 5868 5865 5861 5862 5862 5860 5858 5857 5857 5856 5857 5857 5856 5857 5858 5858 5858 5858 5857 5857 5856 5855 5854 5852 5850 5848 5846 5844 5842 5839 5837 5835 5832 5830 5828 5826 5824 5821 5818 5816 5814 5812 5810 5808 5807 5805
5873 5872 5869 5865 5862 5861 5863 5863 5862 5860 5859 5858 5858 5858 5858 5857 5857 5858 5858 5857 5857 5856 5855 5854 5853 5851 5849 5847 5845 5843 5841 5838 5836 5834 5831 5829 5826 5823 5820 5818 5815 5812 5810 5807 5805 5803 5801 5799 5797
5871 5870 5870 5868 5865 5864 5863 5863 5863 5861 5860 5860 5859 5859 5858 5858 5857 5857 5857 5856 5855 5854 5853 5851 5850 5848 5846 5844 5842 5840 5838 5835 5833 5830 5827 5824 5821 5818 5815 5812 5809 5806 5803 5800 5797 5795 5793 5791 5789
5869 5868 5869 5868 5866 5864 5863 5861 5862 5861 5861 5860 5859 5858 5858 5857 5857 5856 5855 5854 5853 5852 5850 5849 5847 5846 5844 5841 5839 5837 5835 5832 5829 5826 5823 5820 5817 5813 5810 5806 5803 5799 5796 5793 5790 5787 5784 5782 5780
5868 5867 5868 5867 5865 5864 5862 5860 5859 5860 5860 5860 5859 5858 5857 5856 5855 5854 5854 5852 5851 5850 5848 5847 5845 5843 5841 5839 5836 5834 5832 5829 5826 5823 5820 5816 5812 5808 5804 5800 5796 5792 5789 5785 5782 5779 5776 5773 5771
5866 5866 5865 5865 5865 5864 5860 5861 5859 5860 5860 5859 5858 5857 5856 5855 5854 5853 5852 5851 5849 5848 5846 5845 5843 5841 5838 5836 5834 5831 5829 5826 5823 5819 5816 5811 5807 5802 5798 5793 5789 5785 5780 5776 5773 5769 5766 5763 5761
5861 5863 5864 5864 5864 5863 5862 5862 5858 5858 5858 5857 5856 5855 5854 5853 5852 5851 5850 5849 5848 5846 5844 5842 5840 5838 5836 5833 5831 5828 5825 5822 5819 5815 5810 5806 5801 5796 5791 5786 5781 5776 5772 5767 5763 5759 5755 5752 5750